owner,sensor,date,latitude,longitude,vertical_datum,sea_water_practical_salinity,qcFlag 
NERRS,ioos:station:NOAA.NERRS:wkbfrwq:1,2014-02-01T00:45:00Z,30.4162,-87.8228,2.15,9.8,1111122 
NERRS,ioos:station:NOAA.NERRS:wkbfrwq:1,2014-02-01T01:45:00Z,30.4162,-87.8228,2.2,9.6,1111122 
NERRS,ioos:station:NOAA.NERRS:wkbfrwq:1,2014-02-01T02:45:00Z,30.4162,-87.8228,2.26,9.7,1111122 
NERRS,ioos:station:NOAA.NERRS:wkbfrwq:1,2014-02-01T03:45:00Z,30.4162,-87.8228,2.31,9.8,1111122 
NERRS,ioos:station:NOAA.NERRS:wkbfrwq:1,2014-02-01T04:45:00Z,30.4162,-87.8228,2.35,10.2,1111122 
NERRS,ioos:station:NOAA.NERRS:wkbfrwq:1,2014-02-01T05:45:00Z,30.4162,-87.8228,2.34,11.1,1111122 
NERRS,ioos:station:NOAA.NERRS:wkbfrwq:1,2014-02-01T06:45:00Z,30.4162,-87.8228,2.3,11.3,1111122 
NERRS,ioos:station:NOAA.NERRS:wkbfrwq:1,2014-02-01T08:45:00Z,30.4162,-87.8228,2.2,11.0,1111122 
NERRS,ioos:station:NOAA.NERRS:wkbfrwq:1,2014-02-01T09:45:00Z,30.4162,-87.8228,2.13,10.8,1111122 
NERRS,ioos:station:NOAA.NERRS:wkbfrwq:1,2014-02-01T10:45:00Z,30.4162,-87.8228,2.05,10.3,1111122 
NERRS,ioos:station:NOAA.NERRS:wkbfrwq:1,2014-02-01T11:45:00Z,30.4162,-87.8228,1.96,10.0,1111122 
NERRS,ioos:station:NOAA.NERRS:wkbfrwq:1,2014-02-01T12:45:00Z,30.4162,-87.8228,1.9,10.1,1111122 
NERRS,ioos:station:NOAA.NERRS:wkbfrwq:1,2014-02-01T13:45:00Z,30.4162,-87.8228,1.88,10.8,1111122 
NERRS,ioos:station:NOAA.NERRS:wkbfrwq:1,2014-02-01T14:45:00Z,30.4162,-87.8228,1.86,12.4,1111122 
NERRS,ioos:station:NOAA.NERRS:wkbfrwq:1,2014-02-01T15:45:00Z,30.4162,-87.8228,1.86,12.8,1111122 
NERRS,ioos:station:NOAA.NERRS:wkbfrwq:1,2014-02-01T16:45:00Z,30.4162,-87.8228,1.88,12.7,1111122 
NERRS,ioos:station:NOAA.NERRS:wkbfrwq:1,2014-02-01T17:45:00Z,30.4162,-87.8228,1.91,11.4,1111122 
NERRS,ioos:station:NOAA.NERRS:wkbfrwq:1,2014-02-01T18:45:00Z,30.4162,-87.8228,1.94,11.5,1111122 
NERRS,ioos:station:NOAA.NERRS:wkbfrwq:1,2014-02-01T19:45:00Z,30.4162,-87.8228,1.98,11.7,1111122 
NERRS,ioos:station:NOAA.NERRS:wkbfrwq:1,2014-02-01T20:45:00Z,30.4162,-87.8228,2.0,11.4,1111122 
NERRS,ioos:station:NOAA.NERRS:wkbfrwq:1,2014-02-01T21:45:00Z,30.4162,-87.8228,2.02,11.3,1111122 
NERRS,ioos:station:NOAA.NERRS:wkbfrwq:1,2014-02-01T22:45:00Z,30.4162,-87.8228,2.04,11.3,1111122 
NERRS,ioos:station:NOAA.NERRS:wkbfrwq:1,2014-02-01T23:45:00Z,30.4162,-87.8228,2.06,11.2,1111122 
NERRS,ioos:station:NOAA.NERRS:wkbfrwq:1,2014-02-02T00:45:00Z,30.4162,-87.8228,2.08,11.7,1111122 
NERRS,ioos:station:NOAA.NERRS:wkbfrwq:1,2014-02-02T01:45:00Z,30.4162,-87.8228,2.11,11.6,1111122 
NERRS,ioos:station:NOAA.NERRS:wkbfrwq:1,2014-02-02T02:45:00Z,30.4162,-87.8228,2.16,11.3,1111122 
NERRS,ioos:station:NOAA.NERRS:wkbfrwq:1,2014-02-02T03:45:00Z,30.4162,-87.8228,2.22,10.7,1111122 
NERRS,ioos:station:NOAA.NERRS:wkbfrwq:1,2014-02-02T04:45:00Z,30.4162,-87.8228,2.24,11.1,1111122 
NERRS,ioos:station:NOAA.NERRS:wkbfrwq:1,2014-02-02T05:45:00Z,30.4162,-87.8228,2.24,11.3,1111122 
NERRS,ioos:station:NOAA.NERRS:wkbfrwq:1,2014-02-02T06:45:00Z,30.4162,-87.8228,2.25,11.3,1111122 
NERRS,ioos:station:NOAA.NERRS:wkbfrwq:1,2014-02-02T07:45:00Z,30.4162,-87.8228,2.3,11.0,1111122 
NERRS,ioos:station:NOAA.NERRS:wkbfrwq:1,2014-02-02T08:45:00Z,30.4162,-87.8228,2.29,11.2,1111122 
NERRS,ioos:station:NOAA.NERRS:wkbfrwq:1,2014-02-02T09:45:00Z,30.4162,-87.8228,2.22,11.5,1111122 
NERRS,ioos:station:NOAA.NERRS:wkbfrwq:1,2014-02-02T10:45:00Z,30.4162,-87.8228,2.14,11.2,1111122 
NERRS,ioos:station:NOAA.NERRS:wkbfrwq:1,2014-02-02T11:45:00Z,30.4162,-87.8228,2.07,11.8,1111122 
NERRS,ioos:station:NOAA.NERRS:wkbfrwq:1,2014-02-02T12:45:00Z,30.4162,-87.8228,2.02,11.3,1111122 
NERRS,ioos:station:NOAA.NERRS:wkbfrwq:1,2014-02-02T13:45:00Z,30.4162,-87.8228,1.98,11.9,1111122 
NERRS,ioos:station:NOAA.NERRS:wkbfrwq:1,2014-02-02T14:45:00Z,30.4162,-87.8228,1.97,11.9,1111122 
NERRS,ioos:station:NOAA.NERRS:wkbfrwq:1,2014-02-02T15:45:00Z,30.4162,-87.8228,1.96,12.5,1111122 
NERRS,ioos:station:NOAA.NERRS:wkbfrwq:1,2014-02-02T16:45:00Z,30.4162,-87.8228,1.97,12.2,1111122 
NERRS,ioos:station:NOAA.NERRS:wkbfrwq:1,2014-02-02T17:45:00Z,30.4162,-87.8228,2.0,11.9,1111122 
NERRS,ioos:station:NOAA.NERRS:wkbfrwq:1,2014-02-02T18:45:00Z,30.4162,-87.8228,2.03,11.6,1111122 
NERRS,ioos:station:NOAA.NERRS:wkbfrwq:1,2014-02-02T19:45:00Z,30.4162,-87.8228,2.04,11.2,1111122 
NERRS,ioos:station:NOAA.NERRS:wkbfrwq:1,2014-02-02T20:45:00Z,30.4162,-87.8228,2.05,11.2,1111122 
NERRS,ioos:station:NOAA.NERRS:wkbfrwq:1,2014-02-02T21:45:00Z,30.4162,-87.8228,2.1,11.5,1111122 
NERRS,ioos:station:NOAA.NERRS:wkbfrwq:1,2014-02-02T22:45:00Z,30.4162,-87.8228,2.13,10.5,1111122 
NERRS,ioos:station:NOAA.NERRS:wkbfrwq:1,2014-02-02T23:45:00Z,30.4162,-87.8228,2.12,10.8,1111122 
NERRS,ioos:station:NOAA.NERRS:wkbfrwq:1,2014-02-03T00:45:00Z,30.4162,-87.8228,2.1,11.2,1111122 
NERRS,ioos:station:NOAA.NERRS:wkbfrwq:1,2014-02-03T01:45:00Z,30.4162,-87.8228,2.11,12.3,1111122 
NERRS,ioos:station:NOAA.NERRS:wkbfrwq:1,2014-02-03T02:45:00Z,30.4162,-87.8228,2.15,11.7,1111122 
NERRS,ioos:station:NOAA.NERRS:wkbfrwq:1,2014-02-03T03:45:00Z,30.4162,-87.8228,2.21,11.2,1111122 
NERRS,ioos:station:NOAA.NERRS:wkbfrwq:1,2014-02-03T04:45:00Z,30.4162,-87.8228,2.27,10.1,1111122 
NERRS,ioos:station:NOAA.NERRS:wkbfrwq:1,2014-02-03T05:45:00Z,30.4162,-87.8228,2.3,10.9,1111122 
NERRS,ioos:station:NOAA.NERRS:wkbfrwq:1,2014-02-03T06:45:00Z,30.4162,-87.8228,2.28,10.8,1111122 
NERRS,ioos:station:NOAA.NERRS:wkbfrwq:1,2014-02-03T07:45:00Z,30.4162,-87.8228,2.24,11.1,1111122 
NERRS,ioos:station:NOAA.NERRS:wkbfrwq:1,2014-02-03T08:45:00Z,30.4162,-87.8228,2.23,12.1,1111122 
NERRS,ioos:station:NOAA.NERRS:wkbfrwq:1,2014-02-03T09:45:00Z,30.4162,-87.8228,2.24,11.9,1111122 
NERRS,ioos:station:NOAA.NERRS:wkbfrwq:1,2014-02-03T10:45:00Z,30.4162,-87.8228,2.23,11.4,1111122 
NERRS,ioos:station:NOAA.NERRS:wkbfrwq:1,2014-02-03T11:45:00Z,30.4162,-87.8228,2.17,11.2,1111122 
NERRS,ioos:station:NOAA.NERRS:wkbfrwq:1,2014-02-03T12:45:00Z,30.4162,-87.8228,2.09,10.8,1111122 
NERRS,ioos:station:NOAA.NERRS:wkbfrwq:1,2014-02-03T13:45:00Z,30.4162,-87.8228,2.04,10.4,1111122 
NERRS,ioos:station:NOAA.NERRS:wkbfrwq:1,2014-02-03T14:45:00Z,30.4162,-87.8228,2.02,11.7,1111122 
NERRS,ioos:station:NOAA.NERRS:wkbfrwq:1,2014-02-03T15:45:00Z,30.4162,-87.8228,2.04,12.2,1111122 
NERRS,ioos:station:NOAA.NERRS:wkbfrwq:1,2014-02-03T16:45:00Z,30.4162,-87.8228,1.98,11.5,1111122 
NERRS,ioos:station:NOAA.NERRS:wkbfrwq:1,2014-02-03T17:45:00Z,30.4162,-87.8228,1.88,10.6,1111122 
NERRS,ioos:station:NOAA.NERRS:wkbfrwq:1,2014-02-03T18:45:00Z,30.4162,-87.8228,1.8,7.6,1111122 
NERRS,ioos:station:NOAA.NERRS:wkbfrwq:1,2014-02-03T19:45:00Z,30.4162,-87.8228,1.86,10.5,1111122 
NERRS,ioos:station:NOAA.NERRS:wkbfrwq:1,2014-02-03T21:45:00Z,30.4162,-87.8228,2.01,7.6,1111122 
NERRS,ioos:station:NOAA.NERRS:wkbfrwq:1,2014-02-03T22:45:00Z,30.4162,-87.8228,1.96,8.9,1111122 
NERRS,ioos:station:NOAA.NERRS:wkbfrwq:1,2014-02-03T23:45:00Z,30.4162,-87.8228,1.91,7.7,1111122 
NERRS,ioos:station:NOAA.NERRS:wkbfrwq:1,2014-02-04T00:45:00Z,30.4162,-87.8228,1.88,9.8,1111122 
NERRS,ioos:station:NOAA.NERRS:wkbfrwq:1,2014-02-04T01:45:00Z,30.4162,-87.8228,1.88,9.9,1111122 
NERRS,ioos:station:NOAA.NERRS:wkbfrwq:1,2014-02-04T02:45:00Z,30.4162,-87.8228,1.89,9.6,1111122 
NERRS,ioos:station:NOAA.NERRS:wkbfrwq:1,2014-02-04T03:45:00Z,30.4162,-87.8228,1.92,9.1,1111122 
NERRS,ioos:station:NOAA.NERRS:wkbfrwq:1,2014-02-04T05:45:00Z,30.4162,-87.8228,1.92,10.4,1111122 
NERRS,ioos:station:NOAA.NERRS:wkbfrwq:1,2014-02-04T06:45:00Z,30.4162,-87.8228,1.95,10.5,1111122 
NERRS,ioos:station:NOAA.NERRS:wkbfrwq:1,2014-02-14T14:45:00Z,30.4162,-87.8228,1.82,12.3,1111122 
NERRS,ioos:station:NOAA.NERRS:wkbfrwq:1,2014-02-14T15:45:00Z,30.4162,-87.8228,1.82,11.8,1111122 
NERRS,ioos:station:NOAA.NERRS:wkbfrwq:1,2014-02-14T16:45:00Z,30.4162,-87.8228,1.83,11.5,1111122 
NERRS,ioos:station:NOAA.NERRS:wkbfrwq:1,2014-02-14T17:45:00Z,30.4162,-87.8228,1.9,10.4,1111122 
NERRS,ioos:station:NOAA.NERRS:wkbfrwq:1,2014-02-14T18:45:00Z,30.4162,-87.8228,1.98,8.6,1111122 
NERRS,ioos:station:NOAA.NERRS:wkbfrwq:1,2014-02-14T19:45:00Z,30.4162,-87.8228,2.04,9.3,1111122 
NERRS,ioos:station:NOAA.NERRS:wkbfrwq:1,2014-02-14T20:45:00Z,30.4162,-87.8228,2.05,9.8,1111122 
NERRS,ioos:station:NOAA.NERRS:wkbfrwq:1,2014-02-14T21:45:00Z,30.4162,-87.8228,2.04,9.6,1111122 
NERRS,ioos:station:NOAA.NERRS:wkbfrwq:1,2014-02-14T22:45:00Z,30.4162,-87.8228,2.05,11.6,1111122 
NERRS,ioos:station:NOAA.NERRS:wkbfrwq:1,2014-02-14T23:45:00Z,30.4162,-87.8228,2.07,10.3,1111122 
NERRS,ioos:station:NOAA.NERRS:wkbfrwq:1,2014-02-15T00:45:00Z,30.4162,-87.8228,2.12,10.4,1111122 
NERRS,ioos:station:NOAA.NERRS:wkbfrwq:1,2014-02-15T01:45:00Z,30.4162,-87.8228,2.19,8.6,1111122 
NERRS,ioos:station:NOAA.NERRS:wkbfrwq:1,2014-02-15T02:45:00Z,30.4162,-87.8228,2.28,9.1,1111122 
NERRS,ioos:station:NOAA.NERRS:wkbfrwq:1,2014-02-15T03:45:00Z,30.4162,-87.8228,2.27,9.7,1111122 
NERRS,ioos:station:NOAA.NERRS:wkbfrwq:1,2014-02-15T04:45:00Z,30.4162,-87.8228,2.32,9.1,1111122 
NERRS,ioos:station:NOAA.NERRS:wkbfrwq:1,2014-02-15T05:45:00Z,30.4162,-87.8228,2.41,9.3,1111122 
NERRS,ioos:station:NOAA.NERRS:wkbfrwq:1,2014-02-15T06:45:00Z,30.4162,-87.8228,2.35,9.3,1111122 
NERRS,ioos:station:NOAA.NERRS:wkbfrwq:1,2014-02-15T07:45:00Z,30.4162,-87.8228,2.27,9.4,1111122 
NERRS,ioos:station:NOAA.NERRS:wkbfrwq:1,2014-02-15T08:45:00Z,30.4162,-87.8228,2.12,8.2,1111122 
NERRS,ioos:station:NOAA.NERRS:wkbfrwq:1,2014-02-15T09:45:00Z,30.4162,-87.8228,2.06,9.0,1111122 
NERRS,ioos:station:NOAA.NERRS:wkbfrwq:1,2014-02-15T13:45:00Z,30.4162,-87.8228,1.86,6.7,1111122 
NERRS,ioos:station:NOAA.NERRS:wkbfrwq:1,2014-02-15T14:45:00Z,30.4162,-87.8228,1.82,6.0,1111122 
NERRS,ioos:station:NOAA.NERRS:wkbfrwq:1,2014-02-15T15:45:00Z,30.4162,-87.8228,1.87,10.1,1111122 
NERRS,ioos:station:NOAA.NERRS:wkbfrwq:1,2014-02-15T16:45:00Z,30.4162,-87.8228,1.96,7.1,1111122 
NERRS,ioos:station:NOAA.NERRS:wkbfrwq:1,2014-02-15T17:45:00Z,30.4162,-87.8228,2.0,7.1,1111122 
NERRS,ioos:station:NOAA.NERRS:wkbfrwq:1,2014-02-15T18:45:00Z,30.4162,-87.8228,1.99,8.7,1111122 
NERRS,ioos:station:NOAA.NERRS:wkbfrwq:1,2014-02-15T19:45:00Z,30.4162,-87.8228,2.02,8.8,1111122 
NERRS,ioos:station:NOAA.NERRS:wkbfrwq:1,2014-02-15T20:45:00Z,30.4162,-87.8228,2.09,6.3,1111122 
NERRS,ioos:station:NOAA.NERRS:wkbfrwq:1,2014-02-15T21:45:00Z,30.4162,-87.8228,2.11,7.7,1111122 
NERRS,ioos:station:NOAA.NERRS:wkbfrwq:1,2014-02-15T22:45:00Z,30.4162,-87.8228,2.08,9.6,1111122 
NERRS,ioos:station:NOAA.NERRS:wkbfrwq:1,2014-02-15T23:45:00Z,30.4162,-87.8228,2.08,10.0,1111122 
NERRS,ioos:station:NOAA.NERRS:wkbfrwq:1,2014-02-16T00:45:00Z,30.4162,-87.8228,2.1,10.3,1111122 
NERRS,ioos:station:NOAA.NERRS:wkbfrwq:1,2014-02-16T01:45:00Z,30.4162,-87.8228,2.14,10.1,1111122 
NERRS,ioos:station:NOAA.NERRS:wkbfrwq:1,2014-02-16T02:45:00Z,30.4162,-87.8228,2.18,10.0,1111122 
NERRS,ioos:station:NOAA.NERRS:wkbfrwq:1,2014-02-16T03:45:00Z,30.4162,-87.8228,2.19,10.5,1111122 
NERRS,ioos:station:NOAA.NERRS:wkbfrwq:1,2014-02-16T04:45:00Z,30.4162,-87.8228,2.16,10.3,1111122 
NERRS,ioos:station:NOAA.NERRS:wkbfrwq:1,2014-02-16T05:45:00Z,30.4162,-87.8228,2.14,10.9,1111122 
NERRS,ioos:station:NOAA.NERRS:wkbfrwq:1,2014-02-16T06:45:00Z,30.4162,-87.8228,2.14,11.0,1111122 
NERRS,ioos:station:NOAA.NERRS:wkbfrwq:1,2014-02-16T07:45:00Z,30.4162,-87.8228,2.14,10.7,1111122 
NERRS,ioos:station:NOAA.NERRS:wkbfrwq:1,2014-02-16T08:45:00Z,30.4162,-87.8228,2.09,9.4,1111122 
NERRS,ioos:station:NOAA.NERRS:wkbfrwq:1,2014-02-16T09:45:00Z,30.4162,-87.8228,2.02,9.9,1111122 
NERRS,ioos:station:NOAA.NERRS:wkbfrwq:1,2014-02-16T10:45:00Z,30.4162,-87.8228,1.96,9.0,1111122 
NERRS,ioos:station:NOAA.NERRS:wkbfrwq:1,2014-02-16T11:45:00Z,30.4162,-87.8228,1.93,9.9,1111122 
NERRS,ioos:station:NOAA.NERRS:wkbfrwq:1,2014-02-16T12:45:00Z,30.4162,-87.8228,1.91,10.7,1111122 
NERRS,ioos:station:NOAA.NERRS:wkbfrwq:1,2014-02-16T13:45:00Z,30.4162,-87.8228,1.9,10.5,1111122 
NERRS,ioos:station:NOAA.NERRS:wkbfrwq:1,2014-02-16T14:45:00Z,30.4162,-87.8228,1.88,10.4,1111122 
NERRS,ioos:station:NOAA.NERRS:wkbfrwq:1,2014-02-16T15:45:00Z,30.4162,-87.8228,1.9,10.7,1111122 
NERRS,ioos:station:NOAA.NERRS:wkbfrwq:1,2014-02-16T16:45:00Z,30.4162,-87.8228,1.95,9.9,1111122 
NERRS,ioos:station:NOAA.NERRS:wkbfrwq:1,2014-02-16T17:45:00Z,30.4162,-87.8228,1.99,9.3,1111122 
NERRS,ioos:station:NOAA.NERRS:wkbfrwq:1,2014-02-16T18:45:00Z,30.4162,-87.8228,2.01,9.8,1111122 
NERRS,ioos:station:NOAA.NERRS:wkbfrwq:1,2014-02-16T19:45:00Z,30.4162,-87.8228,2.04,9.7,1111122 
NERRS,ioos:station:NOAA.NERRS:wkbfrwq:1,2014-02-16T20:45:00Z,30.4162,-87.8228,2.07,9.8,1111122 
NERRS,ioos:station:NOAA.NERRS:wkbfrwq:1,2014-02-16T21:45:00Z,30.4162,-87.8228,2.08,9.4,1111122 
NERRS,ioos:station:NOAA.NERRS:wkbfrwq:1,2014-02-16T22:45:00Z,30.4162,-87.8228,2.08,8.8,1111122 
NERRS,ioos:station:NOAA.NERRS:wkbfrwq:1,2014-02-16T23:45:00Z,30.4162,-87.8228,2.07,9.8,1111122 
NERRS,ioos:station:NOAA.NERRS:wkbfrwq:1,2014-02-17T00:45:00Z,30.4162,-87.8228,2.08,10.3,1111122 
NERRS,ioos:station:NOAA.NERRS:wkbfrwq:1,2014-02-17T01:45:00Z,30.4162,-87.8228,2.11,10.0,1111122 
NERRS,ioos:station:NOAA.NERRS:wkbfrwq:1,2014-02-17T02:45:00Z,30.4162,-87.8228,2.15,9.2,1111122 
NERRS,ioos:station:NOAA.NERRS:wkbfrwq:1,2014-02-17T03:45:00Z,30.4162,-87.8228,2.17,8.1,1111122 
NERRS,ioos:station:NOAA.NERRS:wkbfrwq:1,2014-02-17T04:45:00Z,30.4162,-87.8228,2.17,8.4,1111122 
NERRS,ioos:station:NOAA.NERRS:wkbfrwq:1,2014-02-17T05:45:00Z,30.4162,-87.8228,2.21,8.7,1111122 
NERRS,ioos:station:NOAA.NERRS:wkbfrwq:1,2014-02-17T06:45:00Z,30.4162,-87.8228,2.22,8.6,1111122 
NERRS,ioos:station:NOAA.NERRS:wkbfrwq:1,2014-02-17T07:45:00Z,30.4162,-87.8228,2.21,8.7,1111122 
NERRS,ioos:station:NOAA.NERRS:wkbfrwq:1,2014-02-17T08:45:00Z,30.4162,-87.8228,2.19,9.6,1111122 
NERRS,ioos:station:NOAA.NERRS:wkbfrwq:1,2014-02-17T09:45:00Z,30.4162,-87.8228,2.14,9.6,1111122 
NERRS,ioos:station:NOAA.NERRS:wkbfrwq:1,2014-02-17T10:45:00Z,30.4162,-87.8228,2.09,9.0,1111122 
NERRS,ioos:station:NOAA.NERRS:wkbfrwq:1,2014-02-17T11:45:00Z,30.4162,-87.8228,2.03,9.4,1111122 
NERRS,ioos:station:NOAA.NERRS:wkbfrwq:1,2014-02-17T12:45:00Z,30.4162,-87.8228,2.0,9.8,1111122 
NERRS,ioos:station:NOAA.NERRS:wkbfrwq:1,2014-02-17T13:45:00Z,30.4162,-87.8228,1.99,10.3,1111122 
NERRS,ioos:station:NOAA.NERRS:wkbfrwq:1,2014-02-17T14:45:00Z,30.4162,-87.8228,1.99,10.2,1111122 
NERRS,ioos:station:NOAA.NERRS:wkbfrwq:1,2014-02-17T15:45:00Z,30.4162,-87.8228,2.02,9.2,1111122 
NERRS,ioos:station:NOAA.NERRS:wkbfrwq:1,2014-02-17T16:45:00Z,30.4162,-87.8228,2.06,8.2,1111122 
NERRS,ioos:station:NOAA.NERRS:wkbfrwq:1,2014-02-17T17:45:00Z,30.4162,-87.8228,2.11,8.0,1111122 
NERRS,ioos:station:NOAA.NERRS:wkbfrwq:1,2014-02-17T18:45:00Z,30.4162,-87.8228,2.13,8.2,1111122 
NERRS,ioos:station:NOAA.NERRS:wkbfrwq:1,2014-02-17T19:45:00Z,30.4162,-87.8228,2.15,8.6,1111122 
NERRS,ioos:station:NOAA.NERRS:wkbfrwq:1,2014-02-17T20:45:00Z,30.4162,-87.8228,2.15,8.6,1111122 
NERRS,ioos:station:NOAA.NERRS:wkbfrwq:1,2014-02-17T21:45:00Z,30.4162,-87.8228,2.16,8.9,1111122 
NERRS,ioos:station:NOAA.NERRS:wkbfrwq:1,2014-02-17T22:45:00Z,30.4162,-87.8228,2.14,8.4,1111122 
NERRS,ioos:station:NOAA.NERRS:wkbfrwq:1,2014-02-17T23:45:00Z,30.4162,-87.8228,2.09,8.3,1111122 
NERRS,ioos:station:NOAA.NERRS:wkbfrwq:1,2014-02-18T00:45:00Z,30.4162,-87.8228,2.06,9.5,1111122 
NERRS,ioos:station:NOAA.NERRS:wkbfrwq:1,2014-02-18T20:45:00Z,30.4162,-87.8228,2.23,8.0,1111122 
NERRS,ioos:station:NOAA.NERRS:wkbfrwq:1,2014-02-19T14:45:00Z,30.4162,-87.8228,2.11,8.9,1111122 
NERRS,ioos:station:NOAA.NERRS:wkbfrwq:1,2014-02-19T15:45:00Z,30.4162,-87.8228,2.14,8.1,1111122 
NERRS,ioos:station:NOAA.NERRS:wkbfrwq:1,2014-02-19T16:45:00Z,30.4162,-87.8228,2.17,7.8,1111122 
NERRS,ioos:station:NOAA.NERRS:wkbfrwq:1,2014-02-19T17:45:00Z,30.4162,-87.8228,2.22,7.2,1111122 
NERRS,ioos:station:NOAA.NERRS:wkbfrwq:1,2014-02-19T18:45:00Z,30.4162,-87.8228,2.26,6.0,1111122 
NERRS,ioos:station:NOAA.NERRS:wkbfrwq:1,2014-02-19T19:45:00Z,30.4162,-87.8228,2.25,7.0,1111122 
NERRS,ioos:station:NOAA.NERRS:wkbfrwq:1,2014-02-19T20:45:00Z,30.4162,-87.8228,2.24,8.0,1111122 
NERRS,ioos:station:NOAA.NERRS:wkbfrwq:1,2014-02-19T21:45:00Z,30.4162,-87.8228,2.25,9.1,1111122 
NERRS,ioos:station:NOAA.NERRS:wkbfrwq:1,2014-02-19T22:45:00Z,30.4162,-87.8228,2.25,7.9,1111122 
NERRS,ioos:station:NOAA.NERRS:wkbfrwq:1,2014-02-19T23:45:00Z,30.4162,-87.8228,2.19,7.9,1111122 
NERRS,ioos:station:NOAA.NERRS:wkbfrwq:1,2014-02-20T00:45:00Z,30.4162,-87.8228,2.14,7.1,1111122 
NERRS,ioos:station:NOAA.NERRS:wkbfrwq:1,2014-02-20T01:45:00Z,30.4162,-87.8228,2.11,9.2,1111122 
NERRS,ioos:station:NOAA.NERRS:wkbfrwq:1,2014-02-20T02:45:00Z,30.4162,-87.8228,2.09,9.6,1111122 
NERRS,ioos:station:NOAA.NERRS:wkbfrwq:1,2014-02-20T03:45:00Z,30.4162,-87.8228,2.08,9.4,1111122 
NERRS,ioos:station:NOAA.NERRS:wkbfrwq:1,2014-02-20T04:45:00Z,30.4162,-87.8228,2.06,9.0,1111122 
NERRS,ioos:station:NOAA.NERRS:wkbfrwq:1,2014-02-20T05:45:00Z,30.4162,-87.8228,2.07,8.7,1111122 
NERRS,ioos:station:NOAA.NERRS:wkbfrwq:1,2014-02-20T06:45:00Z,30.4162,-87.8228,2.1,8.0,1111122 
NERRS,ioos:station:NOAA.NERRS:wkbfrwq:1,2014-02-20T07:45:00Z,30.4162,-87.8228,2.11,7.2,1111122 
NERRS,ioos:station:NOAA.NERRS:wkbfrwq:1,2014-02-20T08:45:00Z,30.4162,-87.8228,2.12,7.2,1111122 
NERRS,ioos:station:NOAA.NERRS:wkbfrwq:1,2014-02-20T09:45:00Z,30.4162,-87.8228,2.14,7.6,1111122 
NERRS,ioos:station:NOAA.NERRS:wkbfrwq:1,2014-02-20T10:45:00Z,30.4162,-87.8228,2.16,7.7,1111122 
NERRS,ioos:station:NOAA.NERRS:wkbfrwq:1,2014-02-20T11:45:00Z,30.4162,-87.8228,2.15,7.3,1111122 
NERRS,ioos:station:NOAA.NERRS:wkbfrwq:1,2014-02-20T12:45:00Z,30.4162,-87.8228,2.14,7.8,1111122 
NERRS,ioos:station:NOAA.NERRS:wkbfrwq:1,2014-02-20T13:45:00Z,30.4162,-87.8228,2.17,8.2,1111122 
NERRS,ioos:station:NOAA.NERRS:wkbfrwq:1,2014-02-20T14:45:00Z,30.4162,-87.8228,2.22,6.8,1111122 
NERRS,ioos:station:NOAA.NERRS:wkbfrwq:1,2014-02-20T15:45:00Z,30.4162,-87.8228,2.26,6.3,1111122 
NERRS,ioos:station:NOAA.NERRS:wkbfrwq:1,2014-02-20T16:45:00Z,30.4162,-87.8228,2.29,6.9,1111122 
NERRS,ioos:station:NOAA.NERRS:wkbfrwq:1,2014-02-20T17:45:00Z,30.4162,-87.8228,2.34,8.1,1111122 
NERRS,ioos:station:NOAA.NERRS:wkbfrwq:1,2014-02-20T18:45:00Z,30.4162,-87.8228,2.39,6.3,1111122 
NERRS,ioos:station:NOAA.NERRS:wkbfrwq:1,2014-02-20T19:45:00Z,30.4162,-87.8228,2.41,6.7,1111122 
NERRS,ioos:station:NOAA.NERRS:wkbfrwq:1,2014-02-20T20:45:00Z,30.4162,-87.8228,2.41,7.6,1111122 
NERRS,ioos:station:NOAA.NERRS:wkbfrwq:1,2014-02-20T21:45:00Z,30.4162,-87.8228,2.38,6.4,1111122 
NERRS,ioos:station:NOAA.NERRS:wkbfrwq:1,2014-02-20T22:45:00Z,30.4162,-87.8228,2.33,6.6,1111122 
NERRS,ioos:station:NOAA.NERRS:wkbfrwq:1,2014-02-20T23:45:00Z,30.4162,-87.8228,2.27,6.5,1111122 
NERRS,ioos:station:NOAA.NERRS:wkbfrwq:1,2014-02-21T00:45:00Z,30.4162,-87.8228,2.23,8.6,1111122 
NERRS,ioos:station:NOAA.NERRS:wkbfrwq:1,2014-02-21T01:45:00Z,30.4162,-87.8228,2.19,8.1,1111122 
NERRS,ioos:station:NOAA.NERRS:wkbfrwq:1,2014-02-21T02:45:00Z,30.4162,-87.8228,2.13,7.8,1111122 
NERRS,ioos:station:NOAA.NERRS:wkbfrwq:1,2014-02-21T03:45:00Z,30.4162,-87.8228,2.09,8.9,1111122 
NERRS,ioos:station:NOAA.NERRS:wkbfrwq:1,2014-02-21T04:45:00Z,30.4162,-87.8228,2.09,9.0,1111122 
NERRS,ioos:station:NOAA.NERRS:wkbfrwq:1,2014-02-21T05:45:00Z,30.4162,-87.8228,2.11,8.9,1111122 
NERRS,ioos:station:NOAA.NERRS:wkbfrwq:1,2014-02-21T06:45:00Z,30.4162,-87.8228,2.11,7.5,1111122 
NERRS,ioos:station:NOAA.NERRS:wkbfrwq:1,2014-02-21T07:45:00Z,30.4162,-87.8228,2.12,7.2,1111122 
NERRS,ioos:station:NOAA.NERRS:wkbfrwq:1,2014-02-21T08:45:00Z,30.4162,-87.8228,2.15,7.5,1111122 
NERRS,ioos:station:NOAA.NERRS:wkbfrwq:1,2014-02-21T09:45:00Z,30.4162,-87.8228,2.26,3.7,1111122 
NERRS,ioos:station:NOAA.NERRS:wkbfrwq:1,2014-02-21T11:45:00Z,30.4162,-87.8228,2.35,4.3,1111122 
NERRS,ioos:station:NOAA.NERRS:wkbfrwq:1,2014-02-21T12:45:00Z,30.4162,-87.8228,2.2,2.5,1111122 
NERRS,ioos:station:NOAA.NERRS:wkbfrwq:1,2014-02-21T13:45:00Z,30.4162,-87.8228,2.02,2.3,1111122 
NERRS,ioos:station:NOAA.NERRS:wkbfrwq:1,2014-02-21T14:45:00Z,30.4162,-87.8228,1.87,2.5,1111122 
NERRS,ioos:station:NOAA.NERRS:wkbfrwq:1,2014-02-21T15:45:00Z,30.4162,-87.8228,1.82,2.7,1111122 
NERRS,ioos:station:NOAA.NERRS:wkbfrwq:1,2014-02-21T16:45:00Z,30.4162,-87.8228,1.96,3.5,1111122 
NERRS,ioos:station:NOAA.NERRS:wkbfrwq:1,2014-02-21T17:45:00Z,30.4162,-87.8228,2.12,4.2,1111122 
NERRS,ioos:station:NOAA.NERRS:wkbfrwq:1,2014-02-21T18:45:00Z,30.4162,-87.8228,2.17,4.2,1111122 
NERRS,ioos:station:NOAA.NERRS:wkbfrwq:1,2014-02-21T19:45:00Z,30.4162,-87.8228,2.21,3.9,1111122 
NERRS,ioos:station:NOAA.NERRS:wkbfrwq:1,2014-02-21T20:45:00Z,30.4162,-87.8228,2.33,4.0,1111122 
NERRS,ioos:station:NOAA.NERRS:wkbfrwq:1,2014-02-21T21:45:00Z,30.4162,-87.8228,2.4,4.5,1111122 
NERRS,ioos:station:NOAA.NERRS:wkbfrwq:1,2014-02-21T22:45:00Z,30.4162,-87.8228,2.36,3.4,1111122 
NERRS,ioos:station:NOAA.NERRS:wkbfrwq:1,2014-02-21T23:45:00Z,30.4162,-87.8228,2.33,3.5,1111122 
NERRS,ioos:station:NOAA.NERRS:wkbfrwq:1,2014-02-22T00:45:00Z,30.4162,-87.8228,2.29,3.2,1111122 
NERRS,ioos:station:NOAA.NERRS:wkbfrwq:1,2014-02-22T01:45:00Z,30.4162,-87.8228,2.25,2.9,1111122 
NERRS,ioos:station:NOAA.NERRS:wkbfrwq:1,2014-02-22T02:45:00Z,30.4162,-87.8228,2.2,3.0,1111122 
NERRS,ioos:station:NOAA.NERRS:wkbfrwq:1,2014-02-22T03:45:00Z,30.4162,-87.8228,2.13,2.9,1111122 
NERRS,ioos:station:NOAA.NERRS:wkbfrwq:1,2014-02-22T04:45:00Z,30.4162,-87.8228,2.07,2.5,1111122 
NERRS,ioos:station:NOAA.NERRS:wkbfrwq:1,2014-02-22T05:45:00Z,30.4162,-87.8228,0.0,2.4,1111122 
NERRS,ioos:station:NOAA.NERRS:wkbfrwq:1,2014-02-22T06:45:00Z,30.4162,-87.8228,1.98,2.7,1111122 
NERRS,ioos:station:NOAA.NERRS:wkbfrwq:1,2014-02-22T07:45:00Z,30.4162,-87.8228,1.92,2.4,1111122 
NERRS,ioos:station:NOAA.NERRS:wkbfrwq:1,2014-02-22T08:45:00Z,30.4162,-87.8228,1.87,2.4,1111122 
NERRS,ioos:station:NOAA.NERRS:wkbfrwq:1,2014-02-22T09:45:00Z,30.4162,-87.8228,1.85,2.3,1111122 
NERRS,ioos:station:NOAA.NERRS:wkbfrwq:1,2014-02-22T10:45:00Z,30.4162,-87.8228,1.86,2.2,1111122 
NERRS,ioos:station:NOAA.NERRS:wkbfrwq:1,2014-02-22T11:45:00Z,30.4162,-87.8228,1.88,2.1,1111122 
NERRS,ioos:station:NOAA.NERRS:wkbfrwq:1,2014-02-22T12:45:00Z,30.4162,-87.8228,1.92,2.8,1111122 
NERRS,ioos:station:NOAA.NERRS:wkbfrwq:1,2014-02-22T13:45:00Z,30.4162,-87.8228,1.95,3.0,1111122 
NERRS,ioos:station:NOAA.NERRS:wkbfrwq:1,2014-02-22T14:45:00Z,30.4162,-87.8228,1.97,2.6,1111122 
NERRS,ioos:station:NOAA.NERRS:wkbfrwq:1,2014-02-22T15:45:00Z,30.4162,-87.8228,2.01,3.4,1111122 
NERRS,ioos:station:NOAA.NERRS:wkbfrwq:1,2014-02-22T16:45:00Z,30.4162,-87.8228,2.12,2.8,1111122 
NERRS,ioos:station:NOAA.NERRS:wkbfrwq:1,2014-02-22T17:45:00Z,30.4162,-87.8228,2.22,4.1,1111122 
NERRS,ioos:station:NOAA.NERRS:wkbfrwq:1,2014-02-22T18:45:00Z,30.4162,-87.8228,2.3,3.8,1111122 
NERRS,ioos:station:NOAA.NERRS:wkbfrwq:1,2014-02-22T19:45:00Z,30.4162,-87.8228,2.36,4.1,1111122 
NERRS,ioos:station:NOAA.NERRS:wkbfrwq:1,2014-02-22T20:45:00Z,30.4162,-87.8228,2.41,4.1,1111122 
NERRS,ioos:station:NOAA.NERRS:wkbfrwq:1,2014-02-22T21:45:00Z,30.4162,-87.8228,2.43,4.0,1111122 
NERRS,ioos:station:NOAA.NERRS:wkbfrwq:1,2014-02-22T22:45:00Z,30.4162,-87.8228,2.43,3.9,1111122 
NERRS,ioos:station:NOAA.NERRS:wkbfrwq:1,2014-02-22T23:45:00Z,30.4162,-87.8228,2.41,4.3,1111122 
NERRS,ioos:station:NOAA.NERRS:wkbfrwq:1,2014-02-23T00:45:00Z,30.4162,-87.8228,2.39,4.0,1111122 
NERRS,ioos:station:NOAA.NERRS:wkbfrwq:1,2014-02-23T01:45:00Z,30.4162,-87.8228,2.33,3.1,1111122 
NERRS,ioos:station:NOAA.NERRS:wkbfrwq:1,2014-02-23T02:45:00Z,30.4162,-87.8228,2.24,2.8,1111122 
NERRS,ioos:station:NOAA.NERRS:wkbfrwq:1,2014-02-23T03:45:00Z,30.4162,-87.8228,2.16,2.4,1111122 
NERRS,ioos:station:NOAA.NERRS:wkbfrwq:1,2014-02-23T04:45:00Z,30.4162,-87.8228,2.1,2.1,1111122 
NERRS,ioos:station:NOAA.NERRS:wkbfrwq:1,2014-02-23T05:45:00Z,30.4162,-87.8228,2.04,1.9,1111122 
NERRS,ioos:station:NOAA.NERRS:wkbfrwq:1,2014-02-23T06:45:00Z,30.4162,-87.8228,1.97,1.8,1111122 
NERRS,ioos:station:NOAA.NERRS:wkbfrwq:1,2014-02-23T07:45:00Z,30.4162,-87.8228,1.91,1.6,1111122 
NERRS,ioos:station:NOAA.NERRS:wkbfrwq:1,2014-02-23T08:45:00Z,30.4162,-87.8228,1.86,1.7,1111122 
NERRS,ioos:station:NOAA.NERRS:wkbfrwq:1,2014-02-23T09:45:00Z,30.4162,-87.8228,1.83,1.6,1111122 